Central Victoria, Mexico

12:48 PM on January 19, 2018 (GMT +0000)
Central Victoria

Weather History for 76649 - January, 2014

Change the Weather History Date:

Monday, January 13, 2014

  Actual Average Record
Temperature  
Mean Temperature 70 °F -  
Max Temperature 78 °F 80 °F - ()
Min Temperature 62 °F 69 °F - ()
Cooling Degree Days 5    
Growing Degree Days 20 (Base 50)    
Moisture  
Dew Point 67 °F    
Average Humidity 90    
Maximum Humidity 100    
Minimum Humidity 69    
Precipitation  
Precipitation 0.00 in - - ()
Sea Level Pressure  
Sea Level Pressure 30.05 in    
Wind  
Wind Speed 3 mph ()    
Max Wind Speed 10 mph    
Max Gust Speed -    
Visibility 7.4 miles    
Events      
T = Trace of Precipitation, MM = Missing Value Source: Averaged Metar Reports

Daily Weather History Graph

Daily Weather History Graph

Search for Another Location

Airport or City:

Trip Planner

Search our weather history database for the weather conditions in past years. The results will help you decide how hot, cold, wet, or windy it might be!

Date:

Astronomy

Jan. 13, 2014 Rise Set
Actual Time 12:28 PM UTC 11:27 PM UTC
Civil Twilight 12:04 PM UTC 11:51 PM UTC
Nautical Twilight 11:37 AM UTC 12:18 AM UTC
Astronomical Twilight 11:10 AM UTC 12:45 AM UTC
Moon 9:40 PM UTC (1/13) 10:18 AM UTC (1/13)
Length of Visible Light 11h 47m
Length of Day
10h 59m
Waxing Gibbous, 94% of the Moon is Illuminated
Jan 13
Waxing Gibbous
Jan 16
Full
Jan 24
Last Quarter
Jan 30
New
Feb 6
First Quarter

Hourly Weather History & Observations

Time (GMT) Temp. Dew Point Humidity Pressure Visibility Wind Dir Wind Speed Gust Speed Precip Events Conditions
12:47 AM 69.8 °F 68.0 °F 94% 30.06 in 7.0 mi Calm Calm - N/A   Scattered Clouds
1:44 AM 68.0 °F 68.0 °F 100% 30.09 in 7.0 mi ESE 3.5 mph - N/A   Scattered Clouds
2:51 AM 66.2 °F 66.2 °F 100% 30.13 in 7.0 mi ESE 3.5 mph - N/A   Scattered Clouds
3:49 AM 66.2 °F 66.2 °F 100% 30.10 in 7.0 mi East 3.5 mph - N/A   Scattered Clouds
4:51 AM 66.2 °F 66.2 °F 100% 30.08 in 7.0 mi East 4.6 mph - N/A   Partly Cloudy
6:17 AM 64.4 °F 64.4 °F 100% 30.06 in 7.0 mi Calm Calm - N/A   Partly Cloudy
8:01 AM 64.4 °F 64.4 °F 100% 30.04 in 7.0 mi Calm Calm - N/A   Partly Cloudy
8:50 AM 64.4 °F 64.4 °F 100% 30.07 in 7.0 mi Calm Calm - N/A   Partly Cloudy
9:43 AM 64.4 °F 64.4 °F 100% 30.03 in 7.0 mi Calm Calm - N/A   Partly Cloudy
10:40 AM 64.4 °F 64.4 °F 100% 30.03 in 7.0 mi ESE 3.5 mph - N/A   Clear
11:45 AM 62.6 °F 62.6 °F 100% 30.01 in 7.0 mi ESE 3.5 mph - N/A   Clear
12:41 PM 62.6 °F 62.6 °F 100% 30.04 in 7.0 mi Calm Calm - N/A   Clear
1:46 PM 68.0 °F 68.0 °F 100% 30.06 in 8.0 mi SE 4.6 mph - N/A   Clear
2:43 PM 73.4 °F 69.8 °F 88% 30.11 in 8.0 mi SE 6.9 mph - N/A   Clear
3:46 PM 77.0 °F 69.8 °F 78% 30.08 in 8.0 mi SE 9.2 mph - N/A   Partly Cloudy
4:40 PM 78.8 °F 69.8 °F 74% 30.06 in 8.0 mi SE 10.4 mph - N/A   Scattered Clouds
5:42 PM 78.8 °F 68.0 °F 69% 30.02 in 8.0 mi SE 9.2 mph - N/A   Scattered Clouds
6:43 PM 77.0 °F 68.0 °F 74% 30.02 in 8.0 mi SE 8.1 mph - N/A   Mostly Cloudy
7:47 PM 78.8 °F 69.8 °F 74% 29.99 in 8.0 mi SE 10.4 mph - N/A   Mostly Cloudy
8:47 PM 77.0 °F 69.8 °F 78% 30.02 in 8.0 mi SE 9.2 mph - N/A   Mostly Cloudy
9:47 PM 77.0 °F 69.8 °F 78% 29.99 in 8.0 mi SE 8.1 mph - N/A   Mostly Cloudy
10:47 PM 75.2 °F 69.8 °F 83% 29.99 in 8.0 mi SE 6.9 mph - N/A   Mostly Cloudy
11:53 PM 71.6 °F 68.0 °F 88% 29.99 in 7.0 mi Calm Calm - N/A   Mostly Cloudy